McCutcheon Field, NC

8:55 PM EST on February 25, 2017 (GMT -0500)
New River Marine Corps Air Station

Weather History for KNCA - May, 2013

Change the Weather History Date:

Wednesday, May 1, 2013

  Actual Average Record
Temperature  
Mean Temperature 66 °F -  
Max Temperature 73 °F 74 °F 91 °F (2007)
Min Temperature 60 °F 52 °F 45 °F (2008)
Growing Degree Days 16 (Base 50)    
Moisture  
Dew Point 60 °F    
Average Humidity 84    
Maximum Humidity 94    
Minimum Humidity 64    
Precipitation  
Precipitation 0.04 in - - ()
Sea Level Pressure  
Sea Level Pressure 30.19 in    
Wind  
Wind Speed 9 mph (NNE)    
Max Wind Speed 15 mph    
Max Gust Speed 24 mph    
Visibility 8 miles    
Events Rain    
Averages and records for this station are not official NWS values.
T = Trace of Precipitation, MM = Missing Value Source: NWS Daily Summary

Daily Weather History Graph

Daily Weather History Graph

Search for Another Location

Airport or City:

Trip Planner

Search our weather history database for the weather conditions in past years. The results will help you decide how hot, cold, wet, or windy it might be!

Date:

Astronomy

May. 01, 2013 Rise Set
Actual Time 6:19 AM EDT 7:54 PM EDT
Civil Twilight 5:52 AM EDT 8:21 PM EDT
Nautical Twilight 5:19 AM EDT 8:54 PM EDT
Astronomical Twilight 4:45 AM EDT 9:28 PM EDT
Moon 1:02 AM EDT (5/1) 11:55 AM EDT (5/1)
Length of Visible Light 14h 29m
Length of Day
13h 35m
Waning Gibbous, 59% of the Moon is Illuminated
May 1
Waning Gibbous
May 2
Last Quarter
May 9
New
May 18
First Quarter
May 25
Full

Hourly Weather History & Observations

Time (EDT) Temp. Dew Point Humidity Pressure Visibility Wind Dir Wind Speed Gust Speed Precip Events Conditions
12:56 AM 60.1 °F 57.0 °F 90% 30.15 in 10.0 mi North 6.9 mph - N/A   Clear
1:35 AM 60.8 °F 57.2 °F 88% 30.13 in 10.0 mi North 11.5 mph - N/A   Mostly Cloudy
2:56 AM 60.1 °F 57.0 °F 90% 30.12 in 10.0 mi North 4.6 mph - N/A   Overcast
4:16 AM 60.8 °F 57.2 °F 88% 30.12 in 10.0 mi NNE 6.9 mph - N/A   Overcast
4:56 AM 60.1 °F 57.0 °F 90% 30.13 in 10.0 mi North 5.8 mph - N/A   Overcast
5:56 AM 60.1 °F 57.9 °F 93% 30.14 in 10.0 mi North 5.8 mph - N/A   Overcast
6:25 AM 60.8 °F 57.2 °F 88% 30.13 in 10.0 mi North 5.8 mph - N/A   Overcast
6:56 AM 60.1 °F 57.9 °F 93% 30.15 in 7.0 mi North 4.6 mph - N/A   Overcast
7:10 AM 60.8 °F 57.2 °F 88% 30.15 in 3.0 mi North 8.1 mph - N/A   Overcast
7:56 AM 60.1 °F 57.9 °F 93% 30.17 in 8.0 mi NNE 6.9 mph - 0.00 in   Overcast
8:56 AM 62.1 °F 59.0 °F 90% 30.17 in 9.0 mi NNE 6.9 mph - N/A   Overcast
9:01 AM 62.6 °F 59.0 °F 88% 30.16 in 9.0 mi NNE 9.2 mph - N/A   Overcast
9:04 AM 62.6 °F 59.0 °F 88% 30.17 in 10.0 mi NNE 8.1 mph - N/A   Overcast
9:19 AM 62.6 °F 59.0 °F 88% 30.17 in 10.0 mi NNE 10.4 mph - N/A   Overcast
9:49 AM 64.4 °F 57.2 °F 77% 30.17 in 10.0 mi NNE 10.4 mph - N/A   Mostly Cloudy
9:56 AM 66.0 °F 57.9 °F 75% 30.18 in 10.0 mi NNE 10.4 mph - N/A   Mostly Cloudy
10:03 AM 66.2 °F 57.2 °F 73% 30.17 in 10.0 mi NNE 10.4 mph - N/A   Mostly Cloudy
10:56 AM 68.0 °F 57.9 °F 70% 30.20 in 10.0 mi NE 13.8 mph 18.4 mph N/A   Mostly Cloudy
11:56 AM 69.1 °F 57.9 °F 68% 30.21 in 10.0 mi NE 10.4 mph - N/A   Mostly Cloudy
12:56 PM 70.0 °F 57.9 °F 65% 30.21 in 10.0 mi NNE 11.5 mph - N/A   Mostly Cloudy
1:35 PM 71.6 °F 59.0 °F 64% 30.19 in 10.0 mi NNE 13.8 mph - N/A   Scattered Clouds
1:56 PM 71.1 °F 59.0 °F 66% 30.19 in 10.0 mi North 10.4 mph - N/A   Scattered Clouds
2:56 PM 70.0 °F 59.0 °F 68% 30.20 in 10.0 mi NE 12.7 mph - N/A   Overcast
3:14 PM 69.8 °F 60.8 °F 73% 30.19 in 10.0 mi East 10.4 mph - N/A   Overcast
3:56 PM 69.1 °F 60.1 °F 73% 30.20 in 10.0 mi NE 9.2 mph - N/A   Overcast
4:42 PM 68.0 °F 62.6 °F 83% 30.21 in 4.0 mi NE 10.4 mph - 0.00 in Rain Light Rain
5:23 PM 66.2 °F 64.4 °F 94% 30.21 in 2.5 mi NNE 6.9 mph - 0.02 in Rain Light Rain
5:26 PM 66.2 °F 64.4 °F 94% 30.21 in 2.5 mi NNE 8.1 mph - 0.02 in Rain Light Rain
5:56 PM 66.0 °F 64.0 °F 93% 30.20 in 4.0 mi North 5.8 mph - 0.04 in Rain Light Rain
7:07 PM 66.2 °F 62.6 °F 88% 30.20 in 6.0 mi NE 11.5 mph 20.7 mph N/A   Overcast
7:15 PM 66.2 °F 62.6 °F 88% 30.20 in 5.0 mi ENE 9.2 mph - N/A   Overcast
7:40 PM 66.2 °F 62.6 °F 88% 30.21 in 6.0 mi ENE 9.2 mph - N/A   Overcast
7:56 PM 66.0 °F 63.0 °F 90% 30.22 in 8.0 mi ENE 6.9 mph - N/A   Overcast
8:17 PM 66.2 °F 62.6 °F 88% 30.21 in 9.0 mi NE 10.4 mph - 0.00 in Rain Light Rain
8:44 PM 64.4 °F 62.6 °F 94% 30.23 in 10.0 mi ENE 13.8 mph - 0.01 in   Overcast
9:46 PM 64.4 °F 62.6 °F 94% 30.25 in 8.0 mi NE 12.7 mph - 0.00 in Rain Light Rain
9:56 PM 64.9 °F 61.0 °F 87% 30.26 in 10.0 mi NE 12.7 mph - 0.00 in   Overcast
10:36 PM 64.4 °F 60.8 °F 88% 30.27 in 10.0 mi ENE 12.7 mph 19.6 mph N/A   Overcast
11:26 PM 64.4 °F 60.8 °F 88% 30.26 in 10.0 mi NE 15.0 mph 24.2 mph N/A   Mostly Cloudy